Satellite-Ground Cal/Val Region Overpasses Predictions

Prediction of Satellite NPP Overpassing Cal/Val Region: PacNW

Region Location: (Latitude: 10.00, Longitude: 139.50) to (Latitude: 22.70, Longitude: 165.60).

Table of predicted overpasses for the next 14.0 days since TLE Epoch: 4/22/2016
Interval Starting Time Starting Location Ending Time Ending Location
1 04/22/2016 15:56:35 ( 22.68, 146.05) 04/22/2016 16:00:10 ( 10.05, 143.05)
2 04/23/2016 03:05:40 ( 10.02, 153.58) 04/23/2016 03:09:16 ( 22.70, 150.56)
3 04/23/2016 15:37:34 ( 22.67, 150.80) 04/23/2016 15:41:09 ( 10.04, 147.80)
4 04/24/2016 02:46:39 ( 10.03, 158.33) 04/24/2016 02:50:14 ( 22.65, 155.33)
5 04/24/2016 15:18:33 ( 22.65, 155.55) 04/24/2016 15:22:08 ( 10.03, 152.55)
6 04/25/2016 02:27:37 ( 10.04, 163.08) 04/25/2016 02:31:12 ( 22.66, 160.08)
7 04/25/2016 14:59:31 ( 22.64, 160.30) 04/25/2016 15:03:06 ( 10.02, 157.31)
8 04/26/2016 02:11:19 ( 19.62, 165.59) 04/26/2016 02:12:11 ( 22.67, 164.84)
9 04/26/2016 03:50:06 ( 10.05, 142.46) 04/26/2016 03:53:38 ( 22.50, 139.51)
10 04/26/2016 14:40:29 ( 22.69, 165.07) 04/26/2016 14:44:05 ( 10.01, 162.06)
11 04/26/2016 16:21:59 ( 22.69, 139.70) 04/26/2016 16:22:12 ( 21.92, 139.51)
12 04/27/2016 03:31:03 ( 10.01, 147.23) 04/27/2016 03:34:39 ( 22.69, 144.21)
13 04/27/2016 16:02:57 ( 22.67, 144.45) 04/27/2016 16:06:32 ( 10.05, 141.45)
14 04/28/2016 03:12:02 ( 10.02, 151.98) 04/28/2016 03:15:37 ( 22.64, 148.98)
15 04/28/2016 15:43:56 ( 22.66, 149.20) 04/28/2016 15:47:31 ( 10.04, 146.20)
16 04/29/2016 02:53:00 ( 10.03, 156.73) 04/29/2016 02:56:35 ( 22.66, 153.73)
17 04/29/2016 15:24:54 ( 22.65, 153.95) 04/29/2016 15:28:29 ( 10.03, 150.95)
18 04/30/2016 02:33:59 ( 10.05, 161.49) 04/30/2016 02:37:34 ( 22.67, 158.49)
19 04/30/2016 15:05:52 ( 22.69, 158.72) 04/30/2016 15:09:28 ( 10.01, 155.71)
20 05/01/2016 02:15:45 ( 12.88, 165.59) 05/01/2016 02:18:32 ( 22.68, 163.24)
21 05/01/2016 03:56:26 ( 10.01, 140.88) 05/01/2016 03:58:07 ( 15.94, 139.50)
22 05/01/2016 14:46:50 ( 22.68, 163.47) 05/01/2016 14:50:26 ( 10.00, 160.46)
23
